Flag for Switzerland Weather past 2 weeks in Pratteln, Basel-Land, Switzerland

Now
54 °F

Broken clouds.


Feels Like: 53 °F
Forecast: 50 / 65 °F
Wind: 5 mph from South

Location: Bale-Mulhouse

Current Time: May 29, 2015 at 8:35:12 AM

Latest Report: May 29, 2015 at 8:00 AM


Visibility: N/A

Pressure: 29.95 "Hg

Humidity: 88%

Dew point: 50 °F

Location of PrattelnLocation

Historic Weather in Pratteln — Graph

°F

Pratteln temperature yesterday

Maximum temperature yesterday: 72 °F (at 3:00 PM)
Minimum temperature yesterday: 41 °F (at 4:00 AM)
Average temperature yesterday: 58 °F

Past Weeks' High & Low Weather Summary

 TemperatureHumidityPressure
High73 °F (May 18, 4:00 PM)100% (May 15, 6:30 PM)30.30 "Hg (May 15, 6:30 PM)
Low39 °F (May 22, 5:00 AM)34% (May 22, 4:30 PM)29.77 "Hg (May 18, 6:30 PM)
Average56 °F71%30.07 "Hg
* Reported May 14 7:00 AM — May 29 7:30 AM, Pratteln, Weather by CustomWeather, © 2015

Note: Actual official high and low records may vary slightly from our data, if they occured in-between our weather recording intervals... More about our weather records

Advertising

Pratteln weather history for previous 24 hours

 ConditionsComfort  
Time TempWeatherWind HumidityBarometerVisibility
7:30 AM
Fri, May 29
54 °FBroken clouds.5 mph82%29.95 "HgN/A
7:00 AM54 °FLight rain. Clear.6 mph82%29.98 "HgN/A
6:30 AM50 °FClear.2 mph88%29.95 "Hg10 mi
6:00 AM50 °FClear.No wind82%29.95 "Hg10 mi
5:30 AM52 °FClear.1 mph82%29.95 "Hg10 mi
5:00 AM52 °FPassing clouds.3 mph82%29.98 "HgN/A
4:30 AM52 °FLight rain. Clear.6 mph88%29.98 "HgN/A
4:00 AM50 °FClear.6 mph88%29.98 "Hg10 mi
3:30 AM48 °FClear.3 mph94%29.98 "Hg10 mi
3:00 AM48 °FClear.2 mph87%30.01 "Hg10 mi
2:30 AM50 °FClear.2 mph82%29.98 "Hg10 mi
2:00 AM50 °FClear.No wind88%30.01 "Hg10 mi
1:30 AM52 °FClear.1 mph82%30.01 "Hg10 mi
1:00 AM54 °FClear.1 mph77%30.01 "Hg10 mi
12:00 AM55 °FClear.2 mph72%30.01 "Hg10 mi
11:30 PM
Thu, May 28
55 °FClear.3 mph72%30.01 "Hg10 mi
11:06 PM55 °FClear.3 mph72%30.01 "Hg10 mi
10:30 PM59 °FClear.3 mph63%30.01 "Hg10 mi
10:00 PM59 °FSunny.5 mph63%30.01 "Hg10 mi
9:30 PM63 °FSunny.3 mph59%30.01 "Hg10 mi
9:00 PM64 °FSunny.5 mph52%30.01 "Hg10 mi
8:30 PM66 °FSunny.7 mph46%30.01 "Hg10 mi
8:00 PM68 °FSunny.9 mph43%30.01 "Hg10 mi
7:30 PM68 °FBroken clouds.9 mph43%30.01 "HgN/A
7:00 PM70 °FBroken clouds.12 mph38%30.01 "HgN/A
6:30 PM70 °FPartly sunny.12 mph40%30.01 "HgN/A
6:00 PM72 °FPartly sunny.10 mph41%30.01 "HgN/A
5:30 PM72 °FPartly sunny.12 mph38%30.01 "HgN/A
5:00 PM72 °FScattered clouds.12 mph38%30.01 "HgN/A
4:30 PM72 °FPassing clouds.8 mph41%30.01 "HgN/A
4:00 PM72 °FPassing clouds.9 mph41%30.04 "HgN/A
3:30 PM72 °FPassing clouds.10 mph41%30.04 "HgN/A
3:00 PM72 °FPassing clouds.10 mph41%30.04 "HgN/A
2:30 PM70 °FPassing clouds.12 mph43%30.04 "HgN/A
2:00 PM70 °FPassing clouds.10 mph43%30.07 "HgN/A
1:30 PM70 °FScattered clouds.8 mph43%30.07 "HgN/A
1:00 PM68 °FPartly sunny.9 mph43%30.07 "HgN/A
12:30 PM66 °FPartly sunny.8 mph46%30.09 "HgN/A
12:00 PM64 °FPassing clouds.7 mph46%30.09 "HgN/A
11:30 AM64 °FPassing clouds.8 mph49%30.09 "HgN/A
11:00 AM63 °FSunny.6 mph49%30.09 "Hg10 mi
10:30 AM61 °FSunny.1 mph59%30.12 "Hg10 mi
10:00 AM59 °FSunny.2 mph59%30.12 "Hg10 mi
9:00 AM54 °FPassing clouds.5 mph67%30.12 "HgN/A
8:30 AM52 °FPassing clouds.5 mph77%30.12 "HgN/A
8:00 AM50 °FPassing clouds.3 mph82%30.12 "HgN/A
Weather by CustomWeather, © 2015

See weather overviewHow to use our weather pages